Regional Weather Roundup
Issued by NWS

Home | Current Version | Previous Version | Graphics & Text | Print | Product List | Glossary Off
Versions: 1 2 3 4 5 6 7 8 9 10 11 12 13 14 15 16 17 18 19 20 21 22 23 24 25 26 27 28 29 30 31 32 33 34 35 36 37 38 39 40 41 42 43 44 45 46 47 48 49 50

225
ASUS43 KFSD 251510
RWRSD

WEATHER ROUNDUP FOR SOUTH DAKOTA
NATIONAL WEATHER SERVICE SIOUX FALLS SD
1000 AM CDT SUN SEP 25 2016

NOTE: "FAIR" INDICATES FEW OR NO CLOUDS BELOW 12,000 FEET WITH NO
SIGNIFICANT WEATHER AND/OR OBSTRUCTIONS TO VISIBILITY.


SDZ001>005-009-010-012>017-251600-
NORTHWEST AND NORTH CENTRAL SOUTH DAKOTA

CITY           SKY/WX    TMP DP  RH WIND       PRES   REMARKS
BUFFALO          N/A     49  38  65 NW21      30.21R
FAITH            N/A     53  39  59 NW33G44   30.19R
MOBRIDGE       SUNNY     57  43  59 NW25G36   30.03R
$$

SDZ012>016-024>037-041>051-057-063-072>074-251600-
SOUTHWEST AND SOUTH CENTRAL SOUTH DAKOTA

CITY           SKY/WX    TMP DP  RH WIND       PRES   REMARKS
RAPID CTY ARPT SUNNY     54  31  41 NW29G38   30.31R
PIERRE         SUNNY     58  42  55 NW32G41   30.10R
CUSTER         SUNNY     44  26  49 NW12G18   30.36R
ELLSWORTH AFB  SUNNY     53  33  46 NW24G32   30.30R
PHILIP         SUNNY     56  40  55 NW28G39   30.22R
PINE RIDGE     SUNNY     54  39  57 W18       30.33R
WINNER         FAIR      60  43  53 NW32G45   30.16R
$$

SDZ004>011-016>023-039-040-251600-
NORTHEAST SOUTH DAKOTA

CITY           SKY/WX    TMP DP  RH WIND       PRES   REMARKS
ABERDEEN       CLOUDY    58  47  66 NW25G31   29.94R
WATERTOWN      CLOUDY    55  51  86 W18G28    29.92R
BROOKINGS      CLOUDY    56  50  80 W25       29.97R
SISSETON         N/A     60  52  74 NW22G29   29.84R
$$

SDZ017-020-022-023-036>040-048>070-251600-
SOUTHEAST SOUTH DAKOTA

CITY           SKY/WX    TMP DP  RH WIND       PRES   REMARKS
SIOUX FALLS    CLOUDY    59  49  69 W14G29    30.01R
HURON          CLOUDY    58  47  66 NW24G32   30.01R
CHAMBERLAIN    CLOUDY    61  47  60 NW24G33   30.11R
MITCHELL       CLOUDY    59  47  64 NW23G31   30.06R
YANKTON        CLOUDY    61  46  59 W20G33    30.07R
$$

ABBREVIATIONS USED IN REMARKS
   TC - TEMPERATURE IN CELSIUS
  WCI - WIND CHILL INDEX
   HX - HEAT INDEX
  VSB - VISIBILITY





USA.gov is the U.S. government's official web portal to all federal, state and local government web resources and services.